| time (UTC) | temp F | wind direction | speed MPH | gust MPH | rain 1hr in | rain 24hr in | rain mn in | humidity % | barometer mb |
| 20260506024035 | 78 | 138 | 3.0 | 0.0 | 0.00 | 0.00 | 0.00 | 82 | 1006.5 |
| 20260506023508 | 78 | 153 | 3.0 | 0.0 | 0.00 | 0.00 | 0.00 | 82 | 1006.4 |
| 20260506023013 | 78 | 153 | 3.0 | 0.0 | 0.00 | 0.00 | 0.00 | 82 | 1006.4 |
| 20260506022548 | 78 | 161 | 3.0 | 0.0 | 0.00 | 0.00 | 0.00 | 81 | 1006.3 |
| 20260506022021 | 78 | 146 | 3.0 | 0.0 | 0.00 | 0.00 | 0.00 | 82 | 1006.2 |
| 20260506021524 | 78 | 146 | 2.0 | 0.0 | 0.00 | 0.00 | 0.00 | 82 | 1006.1 |
| 20260506021103 | 78 | 146 | 2.0 | 0.0 | 0.00 | 0.00 | 0.00 | 81 | 1006.1 |
| 20260506020536 | 78 | 146 | 1.0 | 0.0 | 0.00 | 0.00 | 0.00 | 81 | 1006.0 |
| 20260506020037 | 79 | 146 | 1.0 | 0.0 | 0.00 | 0.00 | 0.00 | 80 | 1006.0 |
| 20260506015507 | 79 | 146 | 1.0 | 0.0 | 0.00 | 0.00 | 0.00 | 80 | 1006.0 |
| 20260506015050 | 79 | 146 | 1.0 | 0.0 | 0.00 | 0.00 | 0.00 | 79 | 1006.0 |
| 20260506014548 | 79 | 146 | 2.0 | 0.0 | 0.00 | 0.00 | 0.00 | 79 | 1005.9 |
| 20260506014020 | 80 | 146 | 3.0 | 0.0 | 0.00 | 0.00 | 0.00 | 79 | 1005.8 |
| 20260506013556 | 80 | 148 | 2.0 | 0.0 | 0.00 | 0.00 | 0.00 | 78 | 1005.8 |
| 20260506013043 | 80 | 148 | 2.0 | 0.0 | 0.00 | 0.00 | 0.00 | 78 | 1005.8 |
| 20260506012516 | 80 | 148 | 3.0 | 0.0 | 0.00 | 0.00 | 0.00 | 77 | 1005.7 |
| 20260506012102 | 80 | 137 | 3.0 | 0.0 | 0.00 | 0.00 | 0.00 | 77 | 1005.6 |
| 20260506011547 | 81 | 166 | 3.0 | 0.0 | 0.00 | 0.00 | 0.00 | 76 | 1005.6 |
| 20260506011020 | 81 | 167 | 3.0 | 0.0 | 0.00 | 0.00 | 0.00 | 76 | 1005.5 |
| 20260506010554 | 81 | 136 | 4.0 | 0.0 | 0.00 | 0.00 | 0.00 | 75 | 1005.6 |
| 20260506010054 | 81 | 136 | 4.0 | 0.0 | 0.00 | 0.00 | 0.00 | 74 | 1005.5 |
| 20260506005519 | 81 | 152 | 4.0 | 0.0 | 0.00 | 0.00 | 0.00 | 74 | 1005.5 |
| 20260506005101 | 82 | 134 | 5.0 | 0.0 | 0.00 | 0.00 | 0.00 | 73 | 1005.5 |
| 20260506004604 | 82 | 132 | 4.0 | 0.0 | 0.00 | 0.00 | 0.00 | 73 | 1005.5 |
| 20260506004037 | 82 | 148 | 4.0 | 0.0 | 0.00 | 0.00 | 0.00 | 73 | 1005.5 |
| 20260506003517 | 82 | 141 | 4.0 | 0.0 | 0.00 | 0.00 | 0.00 | 73 | 1005.6 |
| 20260506003023 | 82 | 152 | 4.0 | 0.0 | 0.00 | 0.00 | 0.00 | 72 | 1005.5 |
| 20260506002558 | 83 | 135 | 4.0 | 0.0 | 0.00 | 0.00 | 0.00 | 72 | 1005.5 |
| 20260506002034 | 83 | 151 | 4.0 | 0.0 | 0.00 | 0.00 | 0.00 | 72 | 1005.6 |
| 20260506001536 | 83 | 127 | 4.0 | 0.0 | 0.00 | 0.00 | 0.00 | 72 | 1005.6 |
| 20260506001009 | 83 | 142 | 4.0 | 0.0 | 0.00 | 0.00 | 0.00 | 72 | 1005.5 |
| 20260506000547 | 83 | 146 | 5.0 | 0.0 | 0.00 | 0.00 | 0.00 | 72 | 1005.6 |
| 20260506000054 | 83 | 152 | 4.0 | 0.0 | 0.00 | 0.00 | 0.00 | 71 | 1005.6 |
| 20260505235523 | 83 | 136 | 4.0 | 0.0 | 0.00 | 0.00 | 0.00 | 71 | 1005.7 |
| 20260505235102 | 83 | 133 | 4.0 | 0.0 | 0.00 | 0.00 | 0.00 | 71 | 1005.6 |
| 20260505234502 | 83 | 136 | 4.0 | 0.0 | 0.00 | 0.00 | 0.00 | 71 | 1005.6 |
| 20260505234040 | 83 | 136 | 5.0 | 0.0 | 0.00 | 0.00 | 0.00 | 70 | 1005.6 |
| 20260505233510 | 83 | 148 | 5.0 | 0.0 | 0.00 | 0.00 | 0.00 | 70 | 1005.5 |
| 20260505233015 | 83 | 151 | 6.0 | 0.0 | 0.00 | 0.00 | 0.00 | 70 | 1005.5 |
| 20260505232550 | 83 | 135 | 6.0 | 0.0 | 0.00 | 0.00 | 0.00 | 69 | 1005.4 |
| 20260505232029 | 83 | 165 | 5.0 | 0.0 | 0.00 | 0.00 | 0.00 | 69 | 1005.2 |
| 20260505231532 | 83 | 172 | 4.0 | 0.0 | 0.00 | 0.00 | 0.00 | 69 | 1005.2 |
| 20260505231005 | 84 | 152 | 5.0 | 0.0 | 0.00 | 0.00 | 0.00 | 68 | 1005.2 |
| 20260505230543 | 84 | 140 | 6.0 | 0.0 | 0.00 | 0.00 | 0.00 | 68 | 1005.2 |
| 20260505230040 | 84 | 194 | 6.0 | 0.0 | 0.00 | 0.00 | 0.00 | 68 | 1005.1 |
| 20260505225510 | 84 | 138 | 6.0 | 0.0 | 0.00 | 0.00 | 0.00 | 68 | 1005.0 |
| 20260505225049 | 84 | 140 | 6.0 | 0.0 | 0.00 | 0.00 | 0.00 | 69 | 1005.0 |
| 20260505224555 | 84 | 145 | 7.0 | 0.0 | 0.00 | 0.00 | 0.00 | 69 | 1004.9 |
| 20260505224028 | 84 | 121 | 6.0 | 0.0 | 0.00 | 0.00 | 0.00 | 68 | 1005.0 |
| 20260505223503 | 84 | 130 | 5.0 | 0.0 | 0.00 | 0.00 | 0.00 | 69 | 1005.1 |
| 20260505223005 | 84 | 147 | 5.0 | 0.0 | 0.00 | 0.00 | 0.00 | 69 | 1005.2 |
| 20260505222541 | 84 | 144 | 5.0 | 0.0 | 0.00 | 0.00 | 0.00 | 68 | 1005.1 |
| 20260505222012 | 84 | 157 | 6.0 | 0.0 | 0.00 | 0.00 | 0.00 | 68 | 1005.0 |
| 20260505221603 | 84 | 129 | 6.0 | 0.0 | 0.00 | 0.00 | 0.00 | 68 | 1004.9 |
| 20260505221035 | 85 | 128 | 4.0 | 0.0 | 0.00 | 0.00 | 0.00 | 68 | 1004.9 |
| 20260505220514 | 85 | 140 | 6.0 | 0.0 | 0.00 | 0.00 | 0.00 | 68 | 1005.0 |
| 20260505220019 | 84 | 142 | 8.0 | 0.0 | 0.00 | 0.00 | 0.00 | 69 | 1005.1 |
| 20260505215557 | 85 | 140 | 7.0 | 0.0 | 0.00 | 0.00 | 0.00 | 67 | 1005.1 |
| 20260505215027 | 85 | 137 | 6.0 | 0.0 | 0.00 | 0.00 | 0.00 | 68 | 1005.2 |
| 20260505214529 | 85 | 141 | 6.0 | 0.0 | 0.00 | 0.00 | 0.00 | 68 | 1005.2 |
| 20260505214003 | 85 | 130 | 6.0 | 0.0 | 0.00 | 0.00 | 0.00 | 68 | 1005.2 |
| 20260505213543 | 85 | 166 | 5.0 | 0.0 | 0.00 | 0.00 | 0.00 | 67 | 1005.2 |
| 20260505213036 | 85 | 151 | 6.0 | 0.0 | 0.00 | 0.00 | 0.00 | 68 | 1005.3 |
| 20260505212513 | 85 | 142 | 6.0 | 0.0 | 0.00 | 0.00 | 0.00 | 67 | 1005.5 |
| 20260505212048 | 86 | 120 | 6.0 | 0.0 | 0.00 | 0.00 | 0.00 | 68 | 1005.5 |
| 20260505211554 | 85 | 144 | 7.0 | 0.0 | 0.00 | 0.00 | 0.00 | 68 | 1005.5 |
| 20260505211025 | 85 | 135 | 6.0 | 0.0 | 0.00 | 0.00 | 0.00 | 68 | 1005.6 |
| 20260505210603 | 85 | 141 | 6.0 | 0.0 | 0.00 | 0.00 | 0.00 | 68 | 1005.6 |
| 20260505210006 | 85 | 146 | 7.0 | 0.0 | 0.00 | 0.00 | 0.00 | 68 | 1005.8 |
| 20260505205547 | 85 | 144 | 7.0 | 0.0 | 0.00 | 0.00 | 0.00 | 69 | 1005.8 |
| 20260505205016 | 85 | 140 | 6.0 | 0.0 | 0.00 | 0.00 | 0.00 | 68 | 1005.8 |
| 20260505204522 | 85 | 150 | 6.0 | 0.0 | 0.00 | 0.00 | 0.00 | 68 | 1005.9 |
| 20260505204058 | 85 | 131 | 6.0 | 0.0 | 0.00 | 0.00 | 0.00 | 70 | 1005.9 |
| 20260505203532 | 85 | 180 | 6.0 | 0.0 | 0.00 | 0.00 | 0.00 | 68 | 1005.8 |
| 20260505203037 | 86 | 133 | 5.0 | 0.0 | 0.00 | 0.00 | 0.00 | 66 | 1006.1 |
| 20260505202512 | 86 | 148 | 4.0 | 0.0 | 0.00 | 0.00 | 0.00 | 66 | 1006.1 |
| 20260505202048 | 86 | 134 | 4.0 | 0.0 | 0.00 | 0.00 | 0.00 | 67 | 1006.1 |
| 20260505201556 | 86 | 126 | 4.0 | 0.0 | 0.00 | 0.00 | 0.00 | 66 | 1006.3 |
| 20260505201021 | 85 | 207 | 3.0 | 0.0 | 0.00 | 0.00 | 0.00 | 66 | 1006.5 |
| 20260505200557 | 85 | 246 | 3.0 | 0.0 | 0.00 | 0.00 | 0.00 | 67 | 1006.5 |
| 20260505200059 | 84 | 213 | 4.0 | 0.0 | 0.00 | 0.00 | 0.00 | 68 | 1006.5 |
| 20260505195536 | 84 | 155 | 5.0 | 0.0 | 0.00 | 0.00 | 0.00 | 68 | 1006.4 |
| 20260505195007 | 84 | 256 | 6.0 | 0.0 | 0.00 | 0.00 | 0.00 | 68 | 1006.5 |
| 20260505194513 | 83 | 168 | 7.0 | 0.0 | 0.00 | 0.00 | 0.00 | 69 | 1006.7 |
| 20260505194051 | 83 | 152 | 7.0 | 0.0 | 0.00 | 0.00 | 0.00 | 69 | 1006.6 |
| 20260505193525 | 83 | 126 | 5.0 | 0.0 | 0.00 | 0.00 | 0.00 | 69 | 1006.7 |
| 20260505193032 | 84 | 137 | 5.0 | 0.0 | 0.00 | 0.00 | 0.00 | 68 | 1006.8 |
| 20260505192506 | 83 | 217 | 5.0 | 0.0 | 0.00 | 0.00 | 0.00 | 69 | 1006.8 |
| 20260505192048 | 83 | 163 | 4.0 | 0.0 | 0.00 | 0.00 | 0.00 | 68 | 1006.8 |
| 20260505191605 | 83 | 143 | 4.0 | 0.0 | 0.00 | 0.00 | 0.00 | 69 | 1006.9 |
| 20260505191027 | 83 | 136 | 5.0 | 0.0 | 0.00 | 0.00 | 0.00 | 69 | 1007.0 |
| 20260505190604 | 83 | 137 | 7.0 | 0.0 | 0.00 | 0.00 | 0.00 | 69 | 1007.1 |
| 20260505190059 | 83 | 156 | 6.0 | 0.0 | 0.00 | 0.00 | 0.00 | 69 | 1007.1 |
| 20260505185525 | 82 | 145 | 6.0 | 0.0 | 0.00 | 0.00 | 0.00 | 72 | 1007.0 |
| 20260505185102 | 82 | 128 | 5.0 | 0.0 | 0.00 | 0.00 | 0.00 | 71 | 1007.1 |
| 20260505184550 | 82 | 169 | 4.0 | 0.0 | 0.00 | 0.00 | 0.00 | 70 | 1007.2 |
| 20260505184025 | 82 | 232 | 4.0 | 0.0 | 0.00 | 0.00 | 0.00 | 72 | 1007.3 |
| 20260505183605 | 82 | 159 | 4.0 | 0.0 | 0.00 | 0.00 | 0.00 | 71 | 1007.3 |
| 20260505183113 | 82 | 145 | 3.0 | 0.0 | 0.00 | 0.00 | 0.00 | 71 | 1007.6 |
| 20260505182533 | 81 | 134 | 3.0 | 0.0 | 0.00 | 0.00 | 0.00 | 73 | 1007.7 |
| 20260505182002 | 81 | 135 | 4.0 | 0.0 | 0.00 | 0.00 | 0.00 | 73 | 1007.9 |
| 20260505181553 | 81 | 142 | 4.0 | 0.0 | 0.00 | 0.00 | 0.00 | 74 | 1007.9 |
| 20260505181029 | 80 | 166 | 5.0 | 0.0 | 0.00 | 0.00 | 0.00 | 74 | 1007.9 |
| 20260505180502 | 79 | 180 | 5.0 | 0.0 | 0.00 | 0.00 | 0.00 | 75 | 1007.9 |
| 20260505180006 | 79 | 138 | 5.0 | 0.0 | 0.00 | 0.00 | 0.00 | 76 | 1008.0 |
| 20260505175542 | 78 | 161 | 5.0 | 0.0 | 0.00 | 0.00 | 0.00 | 77 | 1007.9 |
| 20260505175018 | 78 | 151 | 5.0 | 0.0 | 0.00 | 0.00 | 0.00 | 76 | 1008.2 |
| 20260505174520 | 78 | 129 | 4.0 | 0.0 | 0.00 | 0.00 | 0.00 | 77 | 1008.3 |
| 20260505174104 | 78 | 175 | 3.0 | 0.0 | 0.00 | 0.00 | 0.00 | 78 | 1008.3 |
| 20260505173536 | 77 | 123 | 3.0 | 0.0 | 0.00 | 0.00 | 0.00 | 80 | 1008.3 |
| 20260505173049 | 77 | 186 | 4.0 | 0.0 | 0.00 | 0.00 | 0.00 | 79 | 1008.3 |
| 20260505172512 | 77 | 219 | 4.0 | 0.0 | 0.00 | 0.00 | 0.00 | 79 | 1008.3 |
| 20260505172051 | 77 | 175 | 3.0 | 0.0 | 0.00 | 0.00 | 0.00 | 81 | 1008.3 |
| 20260505171601 | 76 | 130 | 3.0 | 0.0 | 0.00 | 0.00 | 0.00 | 81 | 1008.3 |
| 20260505171032 | 76 | 190 | 4.0 | 0.0 | 0.00 | 0.00 | 0.00 | 83 | 1008.4 |
| 20260505170607 | 76 | 149 | 3.0 | 0.0 | 0.00 | 0.00 | 0.00 | 82 | 1008.3 |
| 20260505170015 | 75 | 133 | 3.0 | 0.0 | 0.00 | 0.00 | 0.00 | 83 | 1008.4 |
| 20260505165544 | 75 | 250 | 4.0 | 0.0 | 0.00 | 0.00 | 0.00 | 83 | 1008.4 |
| 20260505165025 | 75 | 205 | 3.0 | 0.0 | 0.00 | 0.00 | 0.00 | 83 | 1008.4 |
| 20260505164527 | 75 | 145 | 3.0 | 0.0 | 0.00 | 0.00 | 0.00 | 84 | 1008.4 |
| 20260505164106 | 75 | 213 | 3.0 | 0.0 | 0.00 | 0.00 | 0.00 | 85 | 1008.4 |
| 20260505163536 | 74 | 142 | 3.0 | 0.0 | 0.00 | 0.00 | 0.00 | 84 | 1008.4 |
| 20260505163040 | 74 | 198 | 3.0 | 0.0 | 0.00 | 0.00 | 0.00 | 84 | 1008.5 |
| 20260505162512 | 74 | 132 | 3.0 | 0.0 | 0.00 | 0.00 | 0.00 | 85 | 1008.5 |
| 20260505162051 | 74 | 133 | 4.0 | 0.0 | 0.00 | 0.00 | 0.00 | 85 | 1008.5 |
| 20260505161551 | 74 | 276 | 4.0 | 0.0 | 0.00 | 0.00 | 0.00 | 85 | 1008.5 |
| 20260505161020 | 74 | 151 | 3.0 | 0.0 | 0.00 | 0.00 | 0.00 | 86 | 1008.5 |
| 20260505160602 | 73 | 137 | 3.0 | 0.0 | 0.00 | 0.00 | 0.00 | 86 | 1008.4 |
| 20260505153025 | 72 | 142 | 4.0 | 0.0 | 0.00 | 0.00 | 0.00 | 87 | 1008.3 |
| 20260505152500 | 72 | 140 | 3.0 | 0.0 | 0.00 | 0.00 | 0.00 | 87 | 1008.4 |
| 20260505152040 | 72 | 172 | 3.0 | 0.0 | 0.00 | 0.00 | 0.00 | 87 | 1008.4 |
| 20260505151536 | 72 | 146 | 4.0 | 0.0 | 0.00 | 0.00 | 0.00 | 88 | 1008.5 |
| 20260505151010 | 72 | 126 | 4.0 | 0.0 | 0.00 | 0.00 | 0.00 | 87 | 1008.5 |
| 20260505150549 | 72 | 147 | 3.0 | 0.0 | 0.00 | 0.00 | 0.00 | 88 | 1008.4 |
| 20260505140505 | 71 | 135 | 4.0 | 0.0 | 0.00 | 0.00 | 0.00 | 88 | 1007.9 |
| 20260505125005 | 71 | 186 | 3.0 | 0.0 | 0.00 | 0.00 | 0.00 | 88 | 1007.4 |
| 20260505124511 | 70 | 157 | 3.0 | 0.0 | 0.00 | 0.00 | 0.00 | 89 | 1007.4 |
| 20260505124050 | 70 | 180 | 4.0 | 0.0 | 0.00 | 0.00 | 0.00 | 89 | 1007.4 |
| 20260505123522 | 70 | 150 | 4.0 | 0.0 | 0.00 | 0.00 | 0.00 | 89 | 1007.3 |
| 20260505123024 | 70 | 180 | 4.0 | 0.0 | 0.00 | 0.00 | 0.00 | 89 | 1007.1 |
| 20260505122603 | 70 | 144 | 4.0 | 0.0 | 0.00 | 0.00 | 0.00 | 89 | 1007.1 |
| 20260505122036 | 70 | 150 | 4.0 | 0.0 | 0.00 | 0.00 | 0.00 | 89 | 1006.9 |
| 20260505121540 | 70 | 185 | 4.0 | 0.0 | 0.00 | 0.00 | 0.00 | 89 | 1006.8 |
| 20260505121011 | 70 | 150 | 4.0 | 0.0 | 0.00 | 0.00 | 0.00 | 89 | 1006.8 |
| 20260505120544 | 70 | 149 | 4.0 | 0.0 | 0.00 | 0.00 | 0.00 | 89 | 1006.7 |
| 20260505120057 | 70 | 155 | 5.0 | 0.0 | 0.00 | 0.00 | 0.00 | 89 | 1006.6 |
| 20260505115511 | 70 | 138 | 4.0 | 0.0 | 0.00 | 0.00 | 0.00 | 89 | 1006.6 |
| 20260505115048 | 70 | 148 | 5.0 | 0.0 | 0.00 | 0.00 | 0.00 | 89 | 1006.6 |
| 20260505114550 | 70 | 183 | 4.0 | 0.0 | 0.00 | 0.00 | 0.00 | 89 | 1006.5 |
| 20260505114023 | 70 | 141 | 4.0 | 0.0 | 0.00 | 0.00 | 0.00 | 89 | 1006.6 |
| 20260505113558 | 70 | 147 | 4.0 | 0.0 | 0.00 | 0.00 | 0.00 | 88 | 1006.6 |
| 20260505113048 | 70 | 146 | 4.0 | 0.0 | 0.00 | 0.00 | 0.00 | 88 | 1006.7 |
| 20260505112523 | 70 | 140 | 3.0 | 0.0 | 0.00 | 0.00 | 0.00 | 88 | 1006.7 |
| 20260505112055 | 70 | 146 | 4.0 | 0.0 | 0.00 | 0.00 | 0.00 | 88 | 1006.6 |
| 20260505111600 | 70 | 134 | 4.0 | 0.0 | 0.00 | 0.00 | 0.00 | 88 | 1006.6 |
| 20260505111030 | 71 | 142 | 4.0 | 0.0 | 0.00 | 0.00 | 0.00 | 88 | 1006.7 |
| 20260505110502 | 71 | 178 | 4.0 | 0.0 | 0.00 | 0.00 | 0.00 | 88 | 1006.6 |
| 20260505102026 | 70 | 153 | 4.0 | 0.0 | 0.00 | 0.00 | 0.00 | 88 | 1006.7 |
| 20260505101532 | 70 | 136 | 4.0 | 0.0 | 0.00 | 0.00 | 0.00 | 88 | 1006.9 |
| 20260505101005 | 70 | 162 | 4.0 | 0.0 | 0.00 | 0.00 | 0.00 | 88 | 1006.8 |
| 20260505100543 | 70 | 135 | 4.0 | 0.0 | 0.00 | 0.00 | 0.00 | 88 | 1006.9 |
| 20260505100035 | 70 | 153 | 4.0 | 0.0 | 0.00 | 0.00 | 0.00 | 88 | 1007.0 |
| 20260505095511 | 70 | 145 | 4.0 | 0.0 | 0.00 | 0.00 | 0.00 | 88 | 1007.0 |
| 20260505095050 | 70 | 142 | 4.0 | 0.0 | 0.00 | 0.00 | 0.00 | 88 | 1007.1 |
| 20260505094555 | 71 | 155 | 4.0 | 0.0 | 0.00 | 0.00 | 0.00 | 88 | 1007.0 |
| 20260505094034 | 71 | 141 | 4.0 | 0.0 | 0.00 | 0.00 | 0.00 | 88 | 1007.1 |
| 20260505093504 | 71 | 148 | 4.0 | 0.0 | 0.00 | 0.00 | 0.00 | 88 | 1007.1 |
| 20260505093006 | 70 | 173 | 4.0 | 0.0 | 0.00 | 0.00 | 0.00 | 88 | 1007.1 |
| 20260505092548 | 70 | 148 | 4.0 | 0.0 | 0.00 | 0.00 | 0.00 | 87 | 1007.1 |
| 20260505092018 | 70 | 150 | 4.0 | 0.0 | 0.00 | 0.00 | 0.00 | 87 | 1007.2 |
| 20260505091526 | 70 | 143 | 4.0 | 0.0 | 0.00 | 0.00 | 0.00 | 87 | 1007.2 |
| 20260505091102 | 71 | 146 | 5.0 | 0.0 | 0.00 | 0.00 | 0.00 | 87 | 1007.3 |
| 20260505090533 | 71 | 140 | 5.0 | 0.0 | 0.00 | 0.00 | 0.00 | 87 | 1007.5 |
| 20260505090045 | 71 | 167 | 5.0 | 0.0 | 0.00 | 0.00 | 0.00 | 87 | 1007.5 |
| 20260505085515 | 71 | 142 | 4.0 | 0.0 | 0.00 | 0.00 | 0.00 | 87 | 1007.3 |
| 20260505085052 | 71 | 160 | 4.0 | 0.0 | 0.00 | 0.00 | 0.00 | 87 | 1007.5 |
| 20260505084556 | 71 | 133 | 4.0 | 0.0 | 0.00 | 0.00 | 0.00 | 87 | 1007.4 |
| 20260505084032 | 71 | 121 | 4.0 | 0.0 | 0.00 | 0.00 | 0.00 | 87 | 1007.4 |
| 20260505083504 | 71 | 159 | 4.0 | 0.0 | 0.00 | 0.00 | 0.00 | 87 | 1007.4 |
| 20260505083007 | 71 | 135 | 4.0 | 0.0 | 0.00 | 0.00 | 0.00 | 87 | 1007.4 |
| 20260505082545 | 71 | 134 | 5.0 | 0.0 | 0.00 | 0.00 | 0.00 | 86 | 1007.4 |
| 20260505082018 | 71 | 137 | 5.0 | 0.0 | 0.00 | 0.00 | 0.00 | 86 | 1007.6 |
| 20260505081519 | 71 | 141 | 5.0 | 0.0 | 0.00 | 0.00 | 0.00 | 86 | 1007.6 |
| 20260505081102 | 71 | 121 | 5.0 | 0.0 | 0.00 | 0.00 | 0.00 | 86 | 1007.8 |
| 20260505080533 | 71 | 163 | 5.0 | 0.0 | 0.00 | 0.00 | 0.00 | 86 | 1007.7 |
| 20260505080038 | 71 | 130 | 5.0 | 0.0 | 0.00 | 0.00 | 0.00 | 86 | 1007.8 |
| 20260505075602 | 71 | 131 | 5.0 | 0.0 | 0.00 | 0.00 | 0.00 | 86 | 1007.8 |
| 20260505075035 | 71 | 126 | 4.0 | 0.0 | 0.00 | 0.00 | 0.00 | 86 | 1007.8 |
| 20260505074541 | 71 | 153 | 5.0 | 0.0 | 0.00 | 0.00 | 0.00 | 86 | 1007.8 |
| 20260505074014 | 71 | 155 | 6.0 | 0.0 | 0.00 | 0.00 | 0.00 | 86 | 1007.9 |
| 20260505073549 | 71 | 149 | 5.0 | 0.0 | 0.00 | 0.00 | 0.00 | 86 | 1007.9 |
| 20260505073110 | 71 | 167 | 5.0 | 0.0 | 0.00 | 0.00 | 0.00 | 86 | 1007.9 |
| 20260505072527 | 71 | 275 | 5.0 | 0.0 | 0.00 | 0.00 | 0.00 | 86 | 1008.0 |
| 20260505072106 | 71 | 186 | 6.0 | 0.0 | 0.00 | 0.00 | 0.00 | 86 | 1008.0 |
| 20260505071516 | 71 | 132 | 6.0 | 0.0 | 0.00 | 0.00 | 0.00 | 86 | 1008.2 |
| 20260505071049 | 71 | 184 | 6.0 | 0.0 | 0.00 | 0.00 | 0.00 | 86 | 1008.2 |
| 20260505070524 | 71 | 170 | 5.0 | 0.0 | 0.00 | 0.00 | 0.00 | 86 | 1008.3 |
| 20260505070029 | 71 | 139 | 6.0 | 0.0 | 0.00 | 0.00 | 0.00 | 86 | 1008.4 |
| 20260505065505 | 71 | 151 | 6.0 | 0.0 | 0.00 | 0.00 | 0.00 | 86 | 1008.4 |
| 20260505065042 | 71 | 168 | 6.0 | 0.0 | 0.00 | 0.00 | 0.00 | 85 | 1008.6 |
| 20260505064544 | 71 | 123 | 6.0 | 0.0 | 0.00 | 0.00 | 0.00 | 85 | 1008.5 |
| 20260505064021 | 71 | 160 | 6.0 | 0.0 | 0.00 | 0.00 | 0.00 | 85 | 1008.6 |
| 20260505063600 | 71 | 129 | 6.0 | 0.0 | 0.00 | 0.00 | 0.00 | 85 | 1008.5 |
| 20260505063048 | 71 | 162 | 5.0 | 0.0 | 0.00 | 0.00 | 0.00 | 85 | 1008.5 |
| 20260505062521 | 71 | 158 | 6.0 | 0.0 | 0.00 | 0.00 | 0.00 | 85 | 1008.6 |
| 20260505062059 | 71 | 200 | 6.0 | 0.0 | 0.00 | 0.00 | 0.00 | 85 | 1008.7 |
| 20260505061553 | 71 | 123 | 6.0 | 0.0 | 0.00 | 0.00 | 0.00 | 85 | 1008.7 |
| 20260505061023 | 71 | 157 | 5.0 | 0.0 | 0.00 | 0.00 | 0.00 | 85 | 1008.7 |
| 20260505060605 | 71 | 142 | 5.0 | 0.0 | 0.00 | 0.00 | 0.00 | 85 | 1008.8 |
| 20260505060003 | 72 | 146 | 7.0 | 0.0 | 0.00 | 0.00 | 0.00 | 85 | 1008.8 |
| 20260505055541 | 72 | 183 | 8.0 | 0.0 | 0.00 | 0.00 | 0.00 | 85 | 1008.6 |
| 20260505055014 | 72 | 157 | 8.0 | 0.0 | 0.00 | 0.00 | 0.00 | 85 | 1008.8 |
| 20260505054527 | 72 | 213 | 7.0 | 0.0 | 0.00 | 0.00 | 0.00 | 85 | 1008.7 |
| 20260505054057 | 72 | 134 | 7.0 | 0.0 | 0.00 | 0.00 | 0.00 | 84 | 1008.8 |
| 20260505053534 | 72 | 143 | 7.0 | 0.0 | 0.00 | 0.00 | 0.00 | 84 | 1008.7 |
| 20260505053046 | 72 | 268 | 7.0 | 0.0 | 0.00 | 0.00 | 0.00 | 84 | 1008.6 |
| 20260505052511 | 72 | 141 | 7.0 | 0.0 | 0.00 | 0.00 | 0.00 | 84 | 1008.6 |
| 20260505052050 | 72 | 144 | 7.0 | 0.0 | 0.00 | 0.00 | 0.00 | 84 | 1008.6 |
| 20260505051553 | 72 | 131 | 7.0 | 0.0 | 0.00 | 0.00 | 0.00 | 84 | 1008.6 |
| 20260505051028 | 72 | 196 | 7.0 | 0.0 | 0.00 | 0.00 | 0.00 | 84 | 1008.7 |
| 20260505050601 | 72 | 148 | 7.0 | 0.0 | 0.00 | 0.00 | 0.00 | 84 | 1008.7 |
| 20260505041556 | 73 | 145 | 4.0 | 0.0 | 0.00 | 0.00 | 0.00 | 82 | 1008.8 |
| 20260505041025 | 73 | 142 | 4.0 | 0.0 | 0.00 | 0.00 | 0.00 | 81 | 1008.8 |
| 20260505040603 | 73 | 155 | 5.0 | 0.0 | 0.00 | 0.00 | 0.00 | 81 | 1008.8 |
| 20260505040048 | 73 | 189 | 5.0 | 0.0 | 0.00 | 0.00 | 0.00 | 81 | 1008.8 |
| 20260505035520 | 74 | 169 | 4.0 | 0.0 | 0.00 | 0.00 | 0.00 | 80 | 1008.8 |
| 20260505035103 | 74 | 153 | 4.0 | 0.0 | 0.00 | 0.00 | 0.00 | 79 | 1008.8 |
| 20260505034551 | 74 | 151 | 4.0 | 0.0 | 0.00 | 0.00 | 0.00 | 79 | 1008.8 |
| 20260505034025 | 74 | 143 | 5.0 | 0.0 | 0.00 | 0.00 | 0.00 | 79 | 1008.8 |
| 20260505033603 | 74 | 130 | 5.0 | 0.0 | 0.00 | 0.00 | 0.00 | 79 | 1008.8 |
| 20260505033052 | 74 | 141 | 5.0 | 0.0 | 0.00 | 0.00 | 0.00 | 79 | 1008.8 |
| 20260505032529 | 74 | 143 | 5.0 | 0.0 | 0.00 | 0.00 | 0.00 | 79 | 1008.7 |
| 20260505032001 | 74 | 148 | 5.0 | 0.0 | 0.00 | 0.00 | 0.00 | 78 | 1008.6 |
| 20260505031517 | 75 | 139 | 5.0 | 0.0 | 0.00 | 0.00 | 0.00 | 77 | 1008.7 |
| 20260505031041 | 75 | 163 | 5.0 | 0.0 | 0.00 | 0.00 | 0.00 | 77 | 1008.7 |
| 20260505030514 | 75 | 142 | 5.0 | 0.0 | 0.00 | 0.00 | 0.00 | 77 | 1008.7 |
| 20260505030003 | 75 | 169 | 5.0 | 0.0 | 0.00 | 0.00 | 0.00 | 76 | 1008.6 |
| 20260505025542 | 75 | 140 | 5.0 | 0.0 | 0.00 | 0.00 | 0.00 | 75 | 1008.5 |
| 20260505025014 | 75 | 155 | 5.0 | 0.0 | 0.00 | 0.00 | 0.00 | 75 | 1008.6 |
| 20260505024530 | 75 | 143 | 5.0 | 0.0 | 0.00 | 0.00 | 0.00 | 74 | 1008.6 |
| 20260505024059 | 75 | 146 | 3.0 | 0.0 | 0.00 | 0.00 | 0.00 | 73 | 1008.6 |